This is the latest recevied weather packets stored in our database for station/object VY2CRA-4. If no packets are shown the sender has not sent any weather packets the latest 10 day(s).
| Time | Temp. | Humidity | Pressure | Rain* | Wind** | Luminosity | Snow |
|---|---|---|---|---|---|---|---|
| 1788056663 | 18.33° C | 44% | 1014 hPa | 0 mm | - | - | - |
| 1788055463 | 18.89° C | 42% | 1013.9 hPa | 0 mm | - | - | - |
| 1788054261 | 19.44° C | 41% | 1014 hPa | 0 mm | - | - | - |
| 1788050658 | 20.56° C | 36% | 1013.7 hPa | 0 mm | - | - | - |
| 1788049457 | 21.67° C | 35% | 1013.6 hPa | 0 mm | - | - | - |
| 1788048256 | 22.22° C | 33% | 1013.5 hPa | 0 mm | - | - | - |
| 1788047057 | 23.33° C | 30% | 1013.4 hPa | 0 mm | - | - | - |
| 1788032644 | 27.78° C | 20% | 1012.7 hPa | 0 mm | - | - | - |
| 1788031446 | 27.78° C | 19% | 1012.6 hPa | 0 mm | - | - | - |
| 1788029041 | 27.78° C | 20% | 1012.4 hPa | 0 mm | - | - | - |
| 1788025439 | 28.33° C | 25% | 1012.4 hPa | 0 mm | - | - | - |
| 1788023037 | 28.89° C | 24% | 1012.3 hPa | 0 mm | - | - | - |
| 1788021836 | 29.44° C | 22% | 1012.2 hPa | 0 mm | - | - | - |
| 1788020635 | 30.56° C | 21% | 1012.1 hPa | 0 mm | - | - | - |
| 1788018237 | 28.89° C | 25% | 1012.3 hPa | 0 mm | - | - | - |
| 1788015831 | 27.78° C | 29% | 1012.3 hPa | 0 mm | - | - | - |
| 1788013429 | 27.22° C | 31% | 1012.1 hPa | 0 mm | - | - | - |
| 1788011027 | 29.44° C | 29% | 1011.6 hPa | 0 mm | - | - | - |
| 1788009826 | 28.33° C | 32% | 1011.3 hPa | 0 mm | - | - | - |
| 1788008625 | 28.33° C | 31% | 1011.2 hPa | 0 mm | - | - | - |
| 1788007427 | 30° C | 26% | 1011.1 hPa | 0 mm | - | - | - |
| 1788006224 | 32.78° C | 19% | 1010.8 hPa | 0 mm | - | - | - |
| 1788005023 | 32.22° C | 21% | 1010.9 hPa | 0 mm | - | - | - |
| 1788003822 | 30° C | 29% | 1010.9 hPa | 0 mm | - | - | - |
| 1788002621 | 27.22° C | 41% | 1010.8 hPa | 0 mm | - | - | - |
* Rain since midnight (hover to see other rain measurements)
** Current wind speed in m/s (hover to see current wind gust speed)